Location: Schommer Observatory
(40.5200°N, 74.4500°W)
Time: 12:52:01
(UTC-05:00)

ISS - Pass Details

Date: 13 November 2017
Orbit: 402 x 407 km, 51.6° (Epoch: 19 November)

Event Time Altitude Azimuth Distance (km) Brightness Sun altitude
Exits shadow 05:13:23 18° 350° (N) 1,073 -1.9 -17.0°
Maximum altitude 05:14:37 22° 22° (NNE) 934 -1.9 -16.7°
Drops below altitude 10° 05:17:15 10° 76° (ENE) 1,452 0.0 -16.2°
Sets 05:19:38 0° 93° (E) 2,309 1.8 -15.8°
